Tracking 30995 objects as of 5-Jul-2025
HD Live streaming from Space Station
objects crossing your sky now

JILIN-01 GAOFEN 3J

Track JILIN-01 GAOFEN 3J now!
10-day predictions


NORAD ID: 46462
Int'l Code: 2020-065J
Perigee: 438.8 km
Apogee: 443.4 km
Inclination: 97.3 °
Period: 93.3 minutes
Semi major axis: 6812 km
RCS: Unknown
Launch date: September 15, 2020
Source: People's Republic of China (PRC)
Launch site: Yellow Sea Launch Area, China (YSLA)
Your satellite tracking list
ECHOSTAR 16
Track 1 satellite(s)




NASA's NSSDC Master Catalog

Two Line Element Set (TLE):
1 46462U 20065J   25186.54606026  .00022556  00000-0  49407-3 0  9993
2 46462  97.2821 234.4412 0003347 329.6408  30.4646 15.44112886266256
Source of the keplerian elements: AFSPC